Regional Weather Roundup
Issued by NWS

Home | Current Version | Previous Version | Text Only | Print | Product List | Glossary Off
Versions: 1 2 3 4 5 6 7 8 9 10 11 12 13 14 15 16 17 18 19 20 21 22 23 24 25 26 27 28 29 30 31 32 33 34 35 36 37 38 39 40 41 42 43 44 45 46 47 48 49 50

061
ASUS43 KOAX 250510
RWRNE

WEATHER ROUNDUP FOR NEBRASKA
NATIONAL WEATHER SERVICE OMAHA NE
1200 AM CDT SUN SEP 25 2016

NOTES: SATELLITE DATA IS BEING USED TO AUGMENT CLOUD COVER ABOVE
       12000 FEET.
       "FAIR" INDICATES FEW OR NO CLOUDS BELOW 12,000 FEET WITH NO
       SIGNIFICANT WEATHER AND/OR OBSTRUCTIONS TO VISIBILITY.

  * THESE STATIONS DO NOT REPORT WEATHER SUCH AS RAIN...SNOW OR FOG.

NEZ001>004-019>022-054>056-250600-
NEBRASKA PANHANDLE

CITY           SKY/WX    TMP DP  RH WIND       PRES   REMARKS
SCOTTSBLUFF    CLEAR     45  41  86 W6        30.24R
ALLIANCE       CLEAR     48  41  76 W14       30.19R
CHADRON        CLOUDY    54  40  59 W21G37    30.17R
KIMBALL        CLOUDY    48  40  72 NW15G23   30.26R
SIDNEY         CLOUDY    49  41  74 NW9       30.24R
$$

NEZ057>060-069>072-079>082-250600-
SOUTHWEST NEBRASKA

CITY           SKY/WX    TMP DP  RH WIND       PRES   REMARKS
NORTH PLATTE   CLEAR     55  42  61 NW8       30.12R
IMPERIAL       CLEAR     57  40  52 N15       30.16R
LEXINGTON      CLEAR     55  44  65 NW9       30.08R
MCCOOK         CLEAR     60  41  49 N18       30.09R
OGALLALA       CLEAR     56  43  60 W7        30.17R
$$

NEZ005>010-023>029-035>040-094-250600-
NORTH CENTRAL NEBRASKA

CITY           SKY/WX    TMP DP  RH WIND       PRES   REMARKS
VALENTINE      CLEAR     55  39  54 W22G28    30.05R
AINSWORTH      CLEAR     55  42  61 W10       30.06R
BROKEN BOW     CLEAR     58  42  55 NW16G29   30.07R
O`NEILL        PTCLDY    60  42  51 W15       30.02R
ORD            CLEAR     57  43  59 NW16      30.02R
THEDFORD       CLEAR     54  42  65 W15       30.10S
$$

NEZ041-046>049-061>064-073>077-083>087-250600-
SOUTH CENTRAL NEBRASKA

CITY           SKY/WX    TMP DP  RH WIND       PRES   REMARKS
GRAND ISLAND   CLEAR     60  58  92 W7        29.99R
AURORA         PTCLDY    64  64 100 SW5       29.98F
HASTINGS       CLEAR     61  59  93 CALM      30.00S
HEBRON         HVY RAIN  69  67  95 SW7       29.99R
HOLDREGE       CLEAR     57  48  72 NW7       30.03R
KEARNEY *      CLEAR     57  46  67 NW9       30.01R
YORK           CLOUDY    68  66  94 SW3       29.98S
$$

NEZ011>018-030>034-042>045-250600-
NORTHEAST NEBRASKA

CITY           SKY/WX    TMP DP  RH WIND       PRES   REMARKS
NORFOLK        CLOUDY    66  64  93 SW8       29.97R
ALBION         PTCLDY    59  58  96 CALM      29.99S
BLAIR          CLOUDY    69  68  96 SE8       29.96F
FREMONT        DRIZZLE   69  68  97 SW3       29.98R
TEKAMAH        LGT RAIN  70  68  93 SE8       29.97R
WAYNE          CLOUDY    69  68  97 S7        29.97R
$$

NEZ050>053-065>068-078-088>093-250600-
SOUTHEAST NEBRASKA

CITY           SKY/WX    TMP DP  RH WIND       PRES   REMARKS
LINCOLN        CLOUDY    70  68  93 S6        29.96F
OMAHA EPPLEY   CLOUDY    70  66  87 SE7       29.96F
BEATRICE       CLOUDY    69  68  98 S8        29.97S
FALLS CITY     RAIN      70  70 100 SE3       29.96F
NEBRASKA CITY  TSTM      68  65  92 S9        29.96F
PLATTSMOUTH    LGT RAIN  68  65  91 SE9       29.96F
$$

NEZ044-045-051>053-067-250600-
OMAHA AREA

CITY           SKY/WX    TMP DP  RH WIND       PRES   REMARKS
OMAHA EPPLEY   CLOUDY    70  66  87 SE7       29.96F
BLAIR          CLOUDY    69  68  96 SE8       29.96F
FREMONT        DRIZZLE   69  68  97 SW3       29.98R
MILLARD        CLOUDY    70  68  93 SE6       29.96F
OFFUTT AFB     LGT RAIN  68  68 100 SE9       29.95F
PLATTSMOUTH    LGT RAIN  68  65  91 SE9       29.96F
WAHOO          RAIN      69  67  95 W3        29.97S
$$




USA.gov is the U.S. government's official web portal to all federal, state and local government web resources and services.